Location: Pian di Sc�
(43.6333°N, 11.5500°E)
Time: 18:02:50
(UTC+00:00)

Cosmos 2228 - Pass Details

Date: 07 August 2020
Orbit: 588 x 619 km, 82.5° (Epoch: 17 September)

Event Time Altitude Azimuth Distance (km) Brightness Sun altitude
Rises 03:29:42 0° 192° (SSW) 2,855 6.1 -7.3°
Reaches altitude 10° 03:31:55 10° 195° (SSW) 1,960 5.2 -6.9°
Maximum altitude 03:36:14 70° 279° (W) 656 3.1 -6.3°
Drops below altitude 10° 03:40:39 10° 4° (N) 1,991 6.2 -5.6°
Sets 03:42:54 0° 7° (N) 2,903 7.0 -5.2°
